Date,TemperatureHighF,TemperatureAvgF,TemperatureLowF,DewpointHighF,DewpointAvgF,DewpointLowF,HumidityHigh,HumidityAvg,HumidityLow,PressureMaxIn,PressureMinIn,WindSpeedMaxMPH,WindSpeedAvgMPH,GustSpeedMaxMPH,PrecipitationSumIn
2012-3-8,72,52,36,38,32,28,78,51,20,30.33,30.20,3,1,0,0.00
2012-3-9,76,53,38,45,36,31,88,58,24,30.34,30.16,7,2,0,0.00
2012-3-10,60,50,44,49,44,40,88,82,65,30.15,30.00,6,3,0,0.00
2012-3-11,59,50,43,50,44,40,90,79,54,30.06,30.01,6,2,0,0.00
2012-3-12,60,49,37,49,41,36,96,77,49,30.05,29.93,5,2,0,0.06
2012-3-13,54,53,51,52,50,48,93,91,88,29.96,29.85,6,4,0,1.41
2012-3-14,56,55,54,55,53,52,95,93,90,30.11,29.96,3,1,13,0.86
2012-3-15,63,57,54,56,53,51,97,87,77,30.14,30.05,3,1,8,0.00
2012-3-16,57,53,46,55,51,44,97,92,83,30.05,29.71,7,2,18,0.99
2012-3-17,53,46,38,45,40,37,97,82,58,29.72,29.52,10,4,21,0.01
2012-3-18,53,46,42,38,35,29,81,65,42,29.94,29.64,11,7,26,0.00
2012-3-19,58,45,37,35,32,28,86,64,34,30.05,29.94,5,1,11,0.00
2012-3-20,65,54,46,50,43,37,86,69,49,30.19,30.09,3,1,0,0.00
2012-3-21,70,57,48,55,50,46,95,81,48,30.18,29.98,5,1,0,0.00
2012-3-22,59,52,45,51,43,34,93,74,42,30.01,29.93,9,4,14,0.00
2012-3-23,62,50,36,44,38,32,95,68,36,30.09,29.87,5,1,10,0.00
2012-3-24,52,46,42,45,41,33,96,86,48,29.92,29.82,7,1,13,1.12
2012-3-25,58,47,42,49,43,40,97,87,62,29.90,29.79,6,1,11,0.14
2012-3-26,57,48,38,46,41,37,96,77,57,30.09,29.90,6,2,14,0.00
2012-3-27,54,52,48,52,48,42,95,88,70,30.02,29.87,7,3,18,1.06
2012-3-28,64,56,47,52,49,46,94,79,53,30.11,29.92,5,2,1,0.07
2012-3-29,63,53,45,53,49,44,96,85,61,30.13,30.07,6,1,8,0.00
2012-3-30,65,57,53,56,53,51,95,86,68,30.10,29.89,5,1,8,0.00
2012-3-31,58,53,47,53,48,43,95,83,62,30.02,29.71,11,4,18,0.75
2012-4-1,58,51,44,45,41,36,86,69,53,30.28,30.02,8,5,17,0.01
2012-4-2,69,53,42,47,42,38,89,68,38,30.27,30.06,8,3,15,0.00
2012-4-3,56,49,47,51,45,42,93,86,81,30.09,30.01,10,4,22,0.03
2012-4-4,58,49,41,43,39,35,92,71,44,30.20,30.10,9,5,17,0.00
2012-4-5,57,48,39,38,35,32,82,64,43,30.19,30.09,10,4,18,0.00
2012-4-6,66,48,36,40,36,32,91,65,32,30.28,30.17,6,2,11,0.00
2012-4-7,70,51,36,45,37,32,87,61,30,30.17,30.03,4,2,11,0.00
2012-4-8,70,50,37,46,39,33,89,69,36,30.08,30.01,8,2,15,0.00
2012-4-9,68,54,43,49,41,28,95,67,22,30.02,29.82,5,1,14,0.00
2012-4-10,56,53,52,53,50,45,96,90,77,29.89,29.81,4,1,6,0.15
2012-4-11,60,54,48,50,47,46,96,80,64,29.96,29.80,5,2,16,0.01
2012-4-12,60,51,45,49,46,41,96,82,53,30.02,29.77,8,2,26,0.84
2012-4-13,56,50,44,46,43,40,95,79,63,29.87,29.71,11,5,18,0.15
2012-4-14,65,51,44,48,41,37,77,67,52,30.02,29.87,7,4,14,0.00
2012-4-15,69,54,45,55,47,42,97,79,50,30.22,30.13,8,2,0,0.00
2012-4-16,66,55,48,49,46,40,88,74,39,30.24,30.18,7,3,0,0.00
2012-4-17,65,56,51,55,50,48,94,83,62,30.19,30.09,7,3,0,0.00
2012-4-18,68,57,50,54,49,41,90,76,49,30.16,30.09,8,4,0,0.00
2012-4-19,74,63,54,61,56,52,93,78,60,30.16,30.06,7,5,13,0.00
2012-4-20,88,69,55,62,54,47,92,62,29,30.07,29.95,7,2,13,0.00
2012-4-21,93,72,54,62,53,48,81,56,34,29.97,29.83,5,2,9,0.00
2012-4-22,84,65,53,63,55,50,91,72,48,29.92,29.84,6,2,0,0.00
2012-4-23,63,58,54,53,52,50,90,81,69,30.01,29.90,3,2,8,0.00
2012-4-24,69,61,56,58,54,52,94,81,62,30.05,29.95,6,1,11,0.00
2012-4-25,74,62,54,59,55,52,93,77,50,30.01,29.79,5,1,10,0.02
2012-4-26,60,55,50,54,49,41,95,80,50,30.19,29.78,9,4,20,0.07
2012-4-27,68,56,45,48,44,39,85,65,42,30.24,30.13,9,4,15,0.00
2012-4-28,73,60,51,54,48,42,85,66,50,30.14,29.88,8,4,17,0.00
2012-4-29,86,65,49,61,52,47,92,66,34,29.91,29.85,8,3,8,0.00
2012-4-30,75,60,49,57,50,47,94,74,43,29.96,29.89,10,4,21,0.00
2012-5-1,65,54,46,47,45,43,93,73,50,29.93,29.85,10,6,13,0.00
2012-5-2,63,52,43,46,43,40,91,73,49,29.97,29.88,9,4,11,0.00
2012-5-3,65,55,46,53,50,44,92,83,66,30.09,29.95,5,2,9,0.00
2012-5-4,64,56,50,51,46,43,93,70,52,30.20,30.09,8,5,10,0.00
2012-5-5,76,58,46,45,42,38,88,61,29,30.22,30.13,5,2,9,0.09
2012-5-6,85,63,53,48,41,35,71,47,18,30.07,29.98,5,1,8,0.00
2012-5-7,90,74,49,53,42,36,85,37,18,30.02,29.92,8,4,4,0.00
2012-5-8,65,54,46,52,48,44,93,80,62,29.97,29.90,6,1,7,0.00
2012-5-9,82,62,47,58,49,42,92,65,41,29.95,29.86,8,3,11,0.00
2012-5-10,84,65,46,51,42,34,89,50,21,29.92,29.82,7,2,7,0.00
2012-5-11,89,57,47,54,45,39,86,70,22,29.96,29.86,7,1,8,0.00
2012-5-12,87,62,46,59,50,44,91,68,37,30.04,29.96,7,2,7,0.00
2012-5-13,68,60,48,52,49,45,92,68,58,30.07,30.02,7,4,8,0.00
2012-5-14,70,57,50,53,50,47,92,79,46,30.09,30.03,6,2,9,0.00
2012-5-15,68,55,49,52,49,47,93,80,55,30.06,29.99,9,4,12,0.00
2012-5-16,74,56,49,57,50,48,95,81,53,30.03,29.92,7,2,9,0.00
2012-5-17,64,55,48,51,48,44,94,78,55,29.93,29.82,12,6,14,0.00
2012-5-18,53,50,46,44,43,42,87,78,66,29.93,29.89,8,3,8,0.00
2012-5-19,82,62,46,52,45,42,88,59,29,29.98,29.92,7,2,11,0.00
2012-5-20,86,64,51,52,48,40,82,58,30,29.98,29.92,10,4,14,0.00
2012-5-21,67,59,50,56,52,48,91,80,61,30.08,29.98,9,6,15,0.00
2012-5-22,70,60,53,54,51,47,92,73,47,30.11,30.04,8,5,15,0.00
2012-5-23,70,60,52,50,47,43,87,64,44,30.05,29.91,10,6,11,0.00
2012-5-24,70,59,50,49,44,41,77,59,46,29.91,29.73,10,7,18,0.00
2012-5-25,66,56,49,47,43,40,81,65,40,29.82,29.71,8,5,14,0.00
2012-5-26,66,55,47,50,48,44,91,76,55,30.07,29.82,9,4,12,0.00
2012-5-27,70,56,49,52,48,46,90,76,54,30.14,30.06,9,4,15,0.00
2012-5-28,64,56,50,50,48,43,92,75,56,30.07,30.00,7,4,13,0.00
2012-5-29,75,58,48,54,48,45,93,73,48,30.06,30.01,8,3,14,0.00
2012-5-30,86,62,46,56,49,45,94,67,36,30.09,30.00,9,3,15,0.00
2012-5-31,91,66,47,60,51,45,92,63,27,30.03,29.84,6,2,11,0.00
2012-6-1,88,67,53,60,54,49,90,67,37,29.84,29.74,10,3,16,0.00
2012-6-2,73,62,52,57,52,49,88,72,49,29.93,29.80,10,7,18,0.00
2012-6-3,76,61,51,52,49,46,91,68,35,29.94,29.88,9,5,13,0.00
2012-6-4,60,57,51,56,51,46,93,81,69,30.10,29.89,9,4,19,0.04
2012-6-5,62,54,50,47,45,43,86,73,51,30.15,30.10,7,5,12,0.00
2012-6-6,70,61,52,47,45,41,73,56,39,30.13,29.96,9,5,14,0.00
2012-6-7,72,61,50,55,48,43,78,64,47,30.01,29.95,9,5,12,0.00
2012-6-8,69,60,53,50,46,43,82,60,40,29.99,29.90,10,6,13,0.00
2012-6-9,78,71,53,47,44,34,69,39,22,29.98,29.87,7,4,16,0.00
2012-6-10,91,75,60,44,35,26,45,26,11,29.89,29.85,7,2,7,0.00
2012-6-11,79,64,57,50,46,43,72,53,36,29.92,29.87,6,3,8,0.00
2012-6-12,83,66,51,56,51,47,85,62,36,29.95,29.87,11,6,15,0.00
2012-6-13,83,63,50,57,51,47,93,67,39,29.88,29.73,10,3,16,0.00
2012-6-14,80,63,49,52,47,42,89,61,36,29.80,29.73,10,4,13,0.06
2012-6-15,87,67,50,52,47,42,82,53,28,29.80,29.74,10,5,22,0.00
2012-6-16,106,79,55,60,51,43,87,47,14,29.84,29.74,11,2,11,0.00
2012-6-17,86,72,54,57,54,49,88,55,34,29.87,29.75,9,3,12,0.00
2012-6-18,77,60,51,54,50,46,92,71,44,29.90,29.79,9,3,10,0.04
2012-6-19,82,64,48,55,49,45,91,63,34,29.89,29.81,9,3,11,0.00
2012-6-20,91,69,54,56,51,48,89,58,27,29.84,29.77,8,3,20,0.00
2012-6-21,60,54,50,50,49,47,91,83,71,29.94,29.79,16,8,23,0.00
2012-6-22,66,57,52,54,51,47,90,81,63,29.96,29.86,8,5,15,0.00
2012-6-23,64,57,50,50,48,45,88,73,53,29.94,29.85,11,6,18,0.00
2012-6-24,66,57,49,50,46,41,92,70,41,30.03,29.93,11,5,11,0.00
2012-6-25,67,59,52,52,50,48,89,72,51,30.08,30.02,11,5,16,0.00
2012-6-26,72,61,51,51,48,47,88,65,44,30.06,29.89,13,6,22,0.00
2012-6-27,80,62,49,53,49,46,90,66,38,29.93,29.87,10,5,10,0.00
2012-6-28,71,62,55,55,52,48,90,71,52,30.06,29.93,13,6,14,0.00
2012-6-29,69,61,55,57,55,52,93,81,66,30.09,30.01,14,9,16,0.00
2012-6-30,73,63,56,62,58,54,93,83,67,30.02,29.93,12,7,16,0.00
2012-7-1,69,61,56,60,57,54,92,86,74,29.96,29.86,11,6,13,0.00
2012-7-2,76,62,54,60,54,50,96,77,54,29.88,29.83,11,4,11,0.00
2012-7-3,79,64,51,55,51,48,89,66,43,29.89,29.79,9,5,14,0.00
2012-7-4,82,65,51,58,52,49,91,67,40,29.85,29.79,8,4,11,0.00
2012-7-5,66,57,49,51,50,47,92,78,56,29.96,29.86,14,6,20,0.00
2012-7-6,80,60,50,58,51,48,95,74,40,30.02,29.94,10,3,10,0.00
2012-7-7,90,66,48,54,49,39,92,61,18,29.98,29.91,11,4,14,0.00
2012-7-8,76,60,49,53,50,47,93,73,42,30.00,29.95,11,5,11,0.00
2012-7-9,80,62,52,59,52,48,93,73,37,30.04,29.94,10,4,12,0.00
2012-7-10,95,67,48,60,51,46,95,64,24,29.95,29.81,9,3,11,0.00
2012-7-11,96,71,52,61,53,49,89,59,26,29.87,29.76,8,3,13,0.00
2012-7-12,88,66,52,61,53,49,90,65,36,29.83,29.76,10,3,10,0.00
2012-7-13,68,57,51,53,50,48,91,80,59,29.91,29.82,11,6,21,0.00
2012-7-14,75,61,53,58,53,50,90,75,54,29.94,29.85,9,3,13,0.00
2012-7-15,80,62,52,58,53,50,93,75,47,29.92,29.81,9,3,0,0.00
2012-7-16,68,58,54,54,52,50,91,79,53,29.90,29.81,11,4,0,0.00
2012-7-17,68,60,54,56,53,50,94,81,57,30.00,29.89,8,3,0,0.02
2012-7-18,54,53,53,50,50,50,90,90,89,29.99,29.99,1,0,3,0.00
2012-7-19,60,59,58,55,55,54,88,86,83,30.03,29.99,9,6,14,0.00
2012-7-20,84,67,54,57,54,51,95,67,35,30.07,29.95,10,5,11,0.00
2012-7-21,94,71,54,61,54,51,90,61,25,29.98,29.85,11,4,16,0.00
2012-7-22,91,69,52,61,54,50,93,64,31,29.90,29.81,9,3,10,0.00
2012-7-23,80,64,53,56,52,50,89,68,37,29.92,29.86,9,4,13,0.00
2012-7-24,75,62,52,56,53,50,93,74,50,29.97,29.89,10,4,12,0.00
2012-7-25,74,61,51,56,52,49,95,77,51,30.00,29.92,8,4,14,0.00
2012-7-26,68,59,53,55,52,50,91,79,61,29.99,29.93,8,4,12,0.00
2012-7-27,77,61,52,58,53,50,92,77,52,30.00,29.95,8,3,11,0.00
2012-7-28,76,61,53,57,53,50,95,76,48,30.03,29.96,9,4,13,0.00
2012-7-29,81,62,52,59,53,50,94,75,46,30.03,29.93,9,4,11,0.00
2012-7-30,91,67,50,61,54,48,97,67,32,29.98,29.85,11,3,11,0.00
2012-7-31,88,67,52,60,53,49,90,64,34,29.96,29.90,9,3,9,0.00
2012-8-1,85,64,49,59,53,48,94,70,39,30.04,29.93,9,3,10,0.00
2012-8-2,89,65,49,59,53,47,94,69,36,29.99,29.85,9,3,14,0.00
2012-8-3,80,61,51,59,52,48,94,76,45,29.89,29.78,9,3,14,0.00
2012-8-4,66,58,52,56,53,49,92,86,71,29.97,29.83,10,4,14,0.00
2012-8-5,70,62,56,59,56,52,93,82,64,30.08,29.96,10,5,16,0.00
2012-8-6,76,63,56,56,54,52,91,72,47,30.12,30.03,10,6,16,0.00
2012-8-7,75,63,52,57,52,49,93,69,44,30.04,29.95,11,5,18,0.00
2012-8-8,92,67,51,57,50,45,91,62,26,30.00,29.88,10,4,15,0.00
2012-8-9,95,69,50,60,52,48,92,62,26,29.93,29.80,10,4,14,0.00
2012-8-10,92,67,52,59,52,49,89,64,27,29.83,29.71,11,4,19,0.00
2012-8-11,96,67,49,61,52,47,95,66,28,29.81,29.70,9,3,13,0.00
2012-8-12,88,66,50,59,52,48,93,67,34,29.85,29.75,9,3,15,0.00
2012-8-13,95,69,52,58,51,42,90,58,21,29.85,29.74,8,2,11,0.00
2012-8-14,84,66,54,56,52,47,84,64,33,29.82,29.75,9,3,18,0.00
2012-8-15,80,63,55,57,54,52,91,74,45,29.90,29.78,10,5,15,0.00
2012-8-16,79,63,55,57,54,52,92,75,43,29.95,29.86,10,5,14,0.00
2012-8-17,73,62,54,56,53,48,93,73,54,30.00,29.89,10,6,16,0.00
2012-8-18,80,65,56,54,52,50,82,64,36,29.95,29.88,12,6,20,0.00
2012-8-19,69,60,52,55,52,49,91,75,56,29.95,29.87,12,5,15,0.00
2012-8-20,84,62,49,58,51,47,95,71,34,29.93,29.82,9,3,14,0.00
2012-8-21,80,61,50,58,52,48,94,76,40,29.91,29.82,12,4,13,0.00
2012-8-22,78,60,50,58,53,49,96,80,48,29.92,29.85,10,3,15,0.00
2012-8-23,81,62,51,60,54,49,95,77,46,29.94,29.82,8,3,14,0.00
2012-8-24,82,61,48,59,51,46,96,74,32,29.91,29.81,8,3,10,0.00
2012-8-25,73,58,50,56,51,47,94,80,52,29.88,29.78,9,4,14,0.00
2012-8-26,67,59,53,53,51,50,91,76,55,29.97,29.83,14,7,24,0.00
2012-8-27,82,66,57,60,56,52,92,71,47,30.04,29.94,9,5,16,0.00
2012-8-28,83,67,54,56,52,50,88,62,34,30.01,29.92,13,4,20,0.00
2012-8-29,91,68,50,54,48,39,90,55,17,29.93,29.77,10,3,13,0.00
2012-8-30,83,63,52,56,50,45,90,64,39,29.83,29.75,11,3,15,0.00
2012-8-31,62,56,53,53,51,50,92,85,69,29.94,29.82,14,6,26,0.00
2012-9-1,74,59,52,56,52,49,93,79,52,30.03,29.93,10,3,18,0.00
2012-9-2,88,64,46,57,49,37,96,65,20,29.98,29.88,9,3,15,0.00
2012-9-3,90,67,51,56,49,35,92,59,16,29.96,29.87,8,2,12,0.00
2012-9-4,83,60,46,57,51,44,94,74,39,30.01,29.92,10,3,13,0.00
2012-9-5,74,59,52,57,52,50,94,80,49,30.00,29.91,9,3,15,0.00
2012-9-6,80,61,53,55,51,48,90,72,40,30.02,29.92,9,4,16,0.00
2012-9-7,78,60,50,52,50,47,90,71,39,30.08,29.99,10,5,15,0.00
2012-9-8,66,59,54,53,51,50,90,77,59,30.06,29.94,12,6,20,0.00
2012-9-9,71,59,48,53,50,46,93,75,51,29.99,29.86,15,6,22,0.00
2012-9-10,86,63,47,57,50,45,96,69,29,29.93,29.78,8,3,13,0.01
2012-9-11,84,63,49,57,52,47,93,71,37,29.94,29.82,8,2,12,0.00
2012-9-12,83,63,51,58,53,48,95,73,36,30.07,29.93,9,3,14,0.00
2012-9-13,88,63,50,56,52,48,93,70,32,30.09,29.98,10,3,21,0.00
2012-9-14,74,62,53,54,52,50,90,70,47,30.07,30.00,10,5,16,0.00
2012-9-15,82,60,50,56,50,46,94,73,33,30.10,29.97,9,4,13,0.00
2012-9-16,84,58,48,56,49,46,94,76,34,30.05,29.94,8,3,12,0.00
2012-9-17,72,57,50,53,49,47,91,77,48,30.06,29.97,8,4,14,0.00
2012-9-18,69,57,50,52,49,47,90,77,50,30.11,30.01,10,5,16,0.00
2012-9-19,67,57,52,53,51,49,92,81,58,30.10,30.02,11,5,16,0.00
2012-9-20,74,59,48,52,49,46,93,72,43,30.07,29.96,10,4,15,0.00
2012-9-21,85,61,47,54,48,42,94,68,27,29.99,29.86,8,4,13,0.00
2012-9-22,87,64,47,52,48,40,92,61,20,29.93,29.84,7,2,12,0.00
2012-9-23,86,65,50,54,48,45,84,59,27,29.95,29.88,7,2,9,0.00
2012-9-24,80,61,49,56,50,46,95,72,33,29.97,29.85,9,2,13,0.00
2012-9-25,80,60,48,57,51,46,94,75,42,29.92,29.83,9,2,12,0.00
2012-9-26,79,59,49,57,51,48,95,78,48,29.90,29.81,7,2,9,0.00
2012-9-27,88,63,46,57,51,45,94,69,27,29.92,29.81,5,2,10,0.00
2012-9-28,72,58,48,54,51,46,93,78,54,29.95,29.86,8,3,12,0.00
2012-9-29,85,63,51,59,51,45,94,70,28,30.03,29.94,7,2,8,0.00
2012-9-30,95,70,49,54,46,36,93,52,18,30.06,29.94,6,2,7,0.00
2012-10-1,99,76,58,48,35,13,55,28,7,29.99,29.86,9,2,9,0.00
2012-10-2,100,80,62,46,37,30,36,23,11,29.87,29.76,5,2,7,0.00
2012-10-3,92,72,57,54,46,38,87,44,19,29.98,29.78,8,2,12,0.00
2012-10-4,68,61,56,56,54,52,88,78,60,30.12,29.98,7,3,9,0.00
2012-10-5,70,62,56,56,54,52,91,78,59,30.14,30.06,8,4,10,0.00
2012-10-6,69,58,50,52,49,46,93,74,46,30.06,29.97,9,4,19,0.00
2012-10-7,69,56,47,52,48,46,96,77,46,30.01,29.93,12,4,17,0.00
2012-10-8,67,57,48,53,50,46,93,79,58,30.03,29.99,8,4,16,0.00
2012-10-9,69,57,49,54,50,48,98,81,53,30.02,29.93,7,2,10,0.00
2012-10-10,70,56,49,53,50,47,97,81,48,29.96,29.86,9,4,14,0.00
2012-10-11,55,52,51,50,50,48,95,90,84,29.96,29.87,7,3,13,0.01
2012-10-12,58,54,51,51,50,49,94,85,76,30.22,29.95,4,2,6,0.00
2012-10-13,72,57,46,57,51,45,96,82,53,30.30,30.16,11,4,15,0.01
2012-10-14,74,60,51,59,55,50,99,85,58,30.21,30.07,10,3,11,0.00
2012-10-15,79,62,48,59,54,47,98,79,42,30.08,29.94,12,4,12,0.00
2012-10-16,75,65,57,62,58,52,91,77,63,29.98,29.85,15,8,18,0.00
2012-10-17,85,66,52,52,43,32,81,49,16,29.91,29.80,5,3,6,0.00
2012-10-18,82,66,54,58,46,36,89,52,29,30.01,29.87,10,4,12,0.00
2012-10-19,69,60,52,58,55,50,95,85,66,30.05,29.92,11,4,14,0.00
2012-10-20,66,55,48,54,49,43,99,80,58,29.92,29.78,14,6,22,0.00
2012-10-21,60,51,44,49,41,36,91,71,42,29.91,29.83,12,4,15,0.04
2012-10-22,58,52,48,49,47,42,98,85,61,29.91,29.70,10,4,14,1.56
2012-10-23,58,50,44,47,44,38,97,79,48,30.05,29.92,7,2,10,0.01
2012-10-24,59,53,48,51,47,44,97,82,56,30.20,30.00,8,2,11,0.15
2012-10-25,65,53,47,52,48,44,98,84,49,30.27,30.19,6,2,8,0.07
2012-10-26,72,58,46,53,45,35,90,67,29,30.23,30.08,9,4,11,0.00
2012-10-27,78,62,52,56,53,50,93,73,44,30.08,29.94,9,3,14,0.00
2012-10-28,77,59,50,57,52,49,95,80,50,30.01,29.93,10,3,10,0.00
2012-10-29,61,52,48,54,49,46,97,93,76,30.05,30.01,9,3,9,0.01
2012-10-30,67,52,45,57,50,44,99,93,71,30.08,29.97,10,2,13,0.01
2012-10-31,58,55,53,54,53,52,99,94,82,30.01,29.95,4,1,8,0.75
2012-11-1,63,56,50,56,52,46,99,87,67,30.06,29.98,10,3,10,0.02
2012-11-2,64,52,43,50,46,42,97,81,58,30.08,30.03,7,3,9,0.00
2012-11-3,49,47,47,46,45,45,93,92,90,30.11,30.06,6,1,6,0.00
2012-11-4,77,64,50,58,53,49,97,71,46,30.20,30.12,5,2,6,0.00
2012-11-5,74,62,52,56,53,50,92,73,51,30.15,30.04,6,2,10,0.00
2012-11-6,75,62,54,57,53,50,89,75,50,30.08,29.98,6,2,8,0.00
2012-11-7,61,52,49,54,50,47,97,90,78,30.05,29.91,12,6,13,0.00
2012-11-8,53,48,40,46,42,37,91,79,64,29.94,29.87,12,6,13,0.06
2012-11-9,51,43,36,42,38,35,97,83,58,29.98,29.89,10,5,10,0.23
2012-11-10,54,46,38,40,38,36,90,74,53,30.24,29.98,9,6,11,0.00
2012-11-11,49,39,33,39,35,32,96,87,67,30.38,30.25,6,3,8,0.00
2012-11-13,63,50,39,42,38,35,87,66,37,30.27,30.09,5,2,7,0.00
2012-11-14,64,54,46,50,45,40,85,72,59,30.13,30.02,6,2,8,0.00
2012-11-15,61,55,48,48,46,43,87,71,57,30.03,29.95,7,3,8,0.00
2012-11-16,56,52,49,52,50,47,99,94,83,30.00,29.87,4,1,5,0.54
2012-11-17,58,54,51,55,53,51,100,95,81,29.90,29.78,10,5,11,0.69
2012-11-20,57,57,55,56,55,53,96,94,93,30.05,30.00,10,4,10,0.81
2012-11-21,59,54,44,54,52,42,99,92,63,30.20,30.02,10,3,14,0.09
2012-11-22,63,49,41,49,43,40,96,81,56,30.26,30.18,7,4,7,0.00
2012-11-23,62,49,40,50,44,39,98,85,62,30.27,30.17,6,3,7,0.00
2012-11-24,66,52,42,52,46,41,99,84,53,30.20,30.03,8,4,10,0.01
2012-11-25,59,48,43,52,48,43,100,98,79,30.03,29.95,8,3,9,0.01
2012-11-26,48,47,46,47,46,45,99,97,93,30.07,30.03,8,3,8,0.01
2012-11-27,57,51,46,51,48,46,100,90,70,30.11,29.98,5,1,7,0.00
2012-11-28,57,52,50,54,51,48,98,94,82,30.03,29.82,12,2,23,0.77
2012-11-29,58,55,51,57,53,49,96,92,81,30.02,29.82,11,5,20,1.10
2012-11-30,59,56,55,57,54,52,97,92,84,29.99,29.74,20,7,25,2.02
2012-12-1,59,56,54,57,54,52,99,94,86,30.02,29.85,11,3,15,0.52
2012-12-2,59,53,43,57,49,42,98,89,66,30.10,29.71,18,7,25,2.10
2012-12-3,56,46,38,48,43,38,99,89,67,30.20,30.09,5,2,7,0.01
2012-12-4,57,52,47,52,49,46,100,92,74,30.22,30.13,6,1,6,0.10
2012-12-5,56,55,52,56,54,52,100,99,96,30.16,30.09,5,1,9,0.11
2012-12-6,57,50,43,52,48,42,100,92,74,30.14,30.07,5,2,8,0.01
2012-12-7,61,47,39,50,43,39,98,88,64,30.15,30.06,6,2,8,0.01
2012-12-8,56,45,35,48,42,35,100,89,64,30.13,30.03,5,2,7,0.02
2012-12-9,66,51,42,48,43,38,92,74,48,30.18,30.09,5,3,9,0.00
2012-12-10,64,51,43,50,45,41,96,81,60,30.24,30.10,5,2,6,0.00
2012-12-11,53,46,39,48,44,39,99,93,85,30.09,29.84,9,4,18,0.07
2012-12-12,50,44,37,46,40,35,96,86,69,29.90,29.82,11,5,12,0.03
2012-12-13,52,40,33,39,35,32,98,85,55,29.94,29.85,7,3,7,0.01
2012-12-14,48,40,35,42,38,34,99,92,71,30.04,29.82,6,2,6,0.01
2012-12-15,42,38,32,42,38,32,100,99,97,30.08,30.00,8,3,9,0.27
2012-12-16,52,44,40,51,44,40,100,99,93,30.11,29.99,9,2,9,0.08
2012-12-17,54,49,42,52,47,36,98,91,80,30.05,29.97,10,6,21,0.16
2012-12-18,49,42,35,35,30,27,82,64,43,30.19,30.00,10,6,15,0.00
2012-12-19,48,37,29,34,30,26,90,75,54,30.32,30.19,6,2,6,0.00
2012-12-20,53,44,32,45,38,30,93,79,63,30.22,29.96,10,4,16,0.00
2012-12-21,52,50,47,50,48,45,97,91,81,29.96,29.84,11,5,14,0.90
2012-12-22,53,48,43,49,44,42,96,88,69,30.05,29.81,15,6,18,1.09
2012-12-23,55,49,45,53,47,42,98,95,87,30.04,29.82,19,6,24,1.86
2012-12-24,53,44,38,43,41,38,99,88,65,30.20,30.01,8,2,8,0.00
2012-12-25,45,41,37,44,40,37,100,99,95,30.15,29.78,7,2,8,1.04
2012-12-26,51,48,43,45,43,38,95,83,75,30.09,29.85,13,9,18,0.12
2012-12-27,52,44,37,41,38,36,97,79,54,30.17,30.09,10,3,14,0.01
2012-12-28,43,39,35,39,37,34,99,94,84,30.18,30.05,5,2,8,0.09
2012-12-29,52,42,37,42,39,36,98,88,57,30.08,30.01,6,2,10,0.05
2012-12-30,52,41,34,40,36,32,99,85,54,30.18,30.05,7,3,7,0.01
2012-12-31,50,40,31,41,34,29,97,79,46,30.30,30.18,6,2,7,0.00
2013-1-1,51,40,34,38,35,30,99,82,56,30.28,30.20,9,2,9,0.00